STARLINK-1329 1 45531U 20025A 21061.25977265 .00000463 00000-0 49981-4 0 9998 2 45531 53.0584 57.1865 0001676 64.7073 295.4090 15.06401242 48156 STARLINK-1338 1 45532U 20025B 21060.34198982 .00000359 00000-0 43034-4 0 9996 2 45532 53.0588 61.3062 0001591 70.4284 289.6877 15.06394465 48618 STARLINK-1339 1 45533U 20025C 21060.69214813 -.00000978 00000-0 -46767-4 0 9992 2 45533 53.0575 59.7356 0001497 70.0194 290.0956 15.06391211 48073 STARLINK-1341 1 45534U 20025D 21061.28190078 .00000482 00000-0 51288-4 0 9997 2 45534 53.0583 57.0866 0001462 66.1260 293.9883 15.06390499 48160 STARLINK-1350 1 45535U 20025E 21060.70317831 .00000711 00000-0 66582-4 0 9990 2 45535 53.0572 59.6862 0001425 66.8603 293.2536 15.06409159 48678 STARLINK-1352 1 45536U 20025F 21061.23765509 .00000503 00000-0 52676-4 0 9997 2 45536 53.0586 57.2823 0001695 66.6041 293.5126 15.06399555 48168 STARLINK-1353 1 45537U 20025G 21061.24246282 .00004888 00000-0 29304-3 0 9992 2 45537 53.0040 46.1073 0002564 37.6048 322.5122 15.12658506 48327 STARLINK-1362 1 45538U 20025H 21061.26346028 -.00001104 00000-0 -55270-4 0 9996 2 45538 53.0587 57.1630 0001561 60.4482 299.6662 15.06392814 48162 STARLINK-1367 1 45539U 20025J 21060.62090859 .00000580 00000-0 58959-4 0 9996 2 45539 53.0015 30.0715 0001283 72.2624 287.8504 15.05581073 49063 STARLINK-1368 1 45540U 20025K 21061.24135908 .00000382 00000-0 44565-4 0 9990 2 45540 53.0597 57.2678 0002375 55.3582 304.7631 15.06389821 48165 STARLINK-1369 1 45541U 20025L 21060.71425692 -.00001272 00000-0 -66523-4 0 9993 2 45541 53.0586 59.6373 0001644 53.7437 306.3703 15.06392021 48075 STARLINK-1371 1 45542U 20025M 21060.68109040 .00000647 00000-0 62304-4 0 9992 2 45542 53.0590 59.7834 0001555 70.6370 289.4787 15.06399373 48664 STARLINK-1372 1 45543U 20025N 21060.71795296 .00000354 00000-0 42653-4 0 9991 2 45543 53.0579 59.6215 0001668 67.2913 292.8252 15.06390450 48082 STARLINK-1373 1 45544U 20025P 21060.40464483 .00000327 00000-0 40883-4 0 9992 2 45544 53.0586 61.0187 0001606 69.9938 290.1224 15.06389568 48622 STARLINK-1374 1 45545U 20025Q 21061.28558420 .00000848 00000-0 75813-4 0 9994 2 45545 53.0581 57.0668 0001595 60.9336 299.1812 15.06393140 48170 STARLINK-1375 1 45546U 20025R 21060.69950702 .00000602 00000-0 59316-4 0 9996 2 45546 53.0600 59.6939 0001534 62.7501 297.3645 15.06405929 48071 STARLINK-1377 1 45547U 20025S 21060.69583299 .00000687 00000-0 65046-4 0 9990 2 45547 53.0580 59.7184 0001694 63.7527 296.3636 15.06401307 48679 STARLINK-1378 1 45548U 20025T 21061.25240841 .00000590 00000-0 58500-4 0 9997 2 45548 53.0591 57.2208 0001864 58.8583 301.2589 15.06395334 48167 STARLINK-1379 1 45549U 20025U 21060.72532195 .00000326 00000-0 40786-4 0 9999 2 45549 53.0602 59.5833 0001458 66.3777 293.7365 15.06392424 48667 STARLINK-1390 1 45550U 20025V 21060.34105131 .00000249 00000-0 35620-4 0 9990 2 45550 53.0568 61.3085 0001596 64.5436 295.5718 15.06391012 48603 STARLINK-1294 1 45551U 20025W 21061.20633143 -.00000824 00000-0 -36410-4 0 9995 2 45551 53.0607 37.4110 0001427 54.5744 305.5378 15.06392679 48418 STARLINK-1322 1 45552U 20025X 21060.67186946 .00000617 00000-0 60344-4 0 9991 2 45552 53.0577 39.8155 0001425 52.8095 307.3024 15.06397777 48937 STARLINK-1323 1 45553U 20025Y 21061.21738280 .00001118 00000-0 93920-4 0 9990 2 45553 53.0600 37.3661 0001540 67.7016 292.4136 15.06405805 48420 STARLINK-1325 1 45554U 20025Z 21060.41386388 .00000381 00000-0 44501-4 0 9992 2 45554 53.0603 40.9681 0001427 53.5413 306.5708 15.06387751 48908 STARLINK-1327 1 45555U 20025AA 21060.64238299 -.00001307 00000-0 -68863-4 0 9993 2 45555 53.0582 39.9418 0001172 69.5829 290.5286 15.06389958 48337 STARLINK-1334 1 45556U 20025AB 21061.21369405 .00000735 00000-0 68206-4 0 9995 2 45556 53.0594 37.3827 0001475 62.2905 297.8233 15.06404328 48429 STARLINK-1336 1 45557U 20025AC 21061.22107527 .00001541 00000-0 12230-3 0 9993 2 45557 53.0604 37.3427 0001529 56.8905 303.2230 15.06401877 48422 STARLINK-1342 1 45558U 20025AD 21060.65713051 .00000691 00000-0 65303-4 0 9990 2 45558 53.0594 39.8782 0001759 49.3282 310.7860 15.06392327 48939 STARLINK-1344 1 45559U 20025AE 21060.62764902 .00000649 00000-0 62494-4 0 9990 2 45559 53.0586 40.0081 0001350 57.8087 302.3033 15.06392190 48938 STARLINK-1346 1 45560U 20025AF 21060.61382132 .00000591 00000-0 58555-4 0 9991 2 45560 53.0576 30.0796 0001677 62.5036 297.6124 15.06394992 49075 STARLINK-1348 1 45561U 20025AG 21060.91992587 -.00269025 00000-0 -78930-2 0 9994 2 45561 52.9962 316.1906 0002535 149.8347 210.2801 15.35728892 49538 STARLINK-1354 1 45562U 20025AH 21060.83405285 -.00001171 00000-0 -59722-4 0 9996 2 45562 53.0588 39.0805 0001267 60.7484 299.3631 15.06392446 48367 STARLINK-1355 1 45563U 20025AJ 21060.64975201 .00000955 00000-0 82979-4 0 9993 2 45563 53.0576 39.9130 0001249 71.7712 288.3413 15.06401731 48938 STARLINK-1356 1 45564U 20025AK 21060.64606469 .00000541 00000-0 55190-4 0 9997 2 45564 53.0596 39.9211 0000969 61.1523 298.9564 15.06395930 48333 STARLINK-1357 1 45565U 20025AL 21060.63870002 -.00000739 00000-0 -30758-4 0 9997 2 45565 53.0615 39.9552 0001264 65.3329 294.7791 15.06392052 48331 STARLINK-1358 1 45566U 20025AM 21060.65342883 .00000532 00000-0 54632-4 0 9997 2 45566 53.0572 39.8981 0001360 71.2517 288.8620 15.06402263 48332 STARLINK-1361 1 45567U 20025AN 21060.66449319 .00000483 00000-0 51294-4 0 9997 2 45567 53.0584 39.8417 0001649 55.3198 304.7946 15.06398671 48941 STARLINK-1363 1 45568U 20025AP 21060.65618711 .00000494 00000-0 52053-4 0 9997 2 45568 53.0610 39.8802 0001580 58.8218 301.2925 15.06390657 48333 STARLINK-1366 1 45569U 20025AQ 21061.19895402 .00000382 00000-0 44542-4 0 9992 2 45569 53.0592 37.4413 0001403 55.1027 305.0094 15.06400954 48417 STARLINK-1376 1 45570U 20025AR 21060.66082362 .00000602 00000-0 59325-4 0 9998 2 45570 53.0589 39.8578 0001567 52.4803 307.6328 15.06385434 48330 STARLINK-1261 1 45571U 20025AS 21061.20725854 .00000770 00000-0 70603-4 0 9998 2 45571 53.0602 27.4085 0001599 56.9224 303.1918 15.06396589 48568 STARLINK-1320 1 45572U 20025AT 21061.19990500 .00000936 00000-0 81805-4 0 9999 2 45572 53.0626 27.4284 0002015 50.6125 309.5042 15.06380560 48550 STARLINK-1321 1 45573U 20025AU 21060.64699014 .00000849 00000-0 75883-4 0 9997 2 45573 53.0576 29.9304 0001811 51.0599 309.0552 15.06397009 48779 STARLINK-1324 1 45574U 20025AV 21060.60644568 .00000653 00000-0 62781-4 0 9994 2 45574 53.0576 30.1109 0001646 57.7522 302.3626 15.06389403 49084 STARLINK-1326 1 45575U 20025AW 21060.84559208 .00003020 00000-0 22040-3 0 9991 2 45575 53.0029 28.4830 0001236 77.1092 283.0034 15.06596079 49124 STARLINK-1328 1 45576U 20025AX 21061.16302703 -.00001208 00000-0 -62233-4 0 9991 2 45576 53.0609 27.6036 0001666 56.6427 303.4721 15.06392605 48554 STARLINK-1330 1 45577U 20025AY 21060.32262158 .00000857 00000-0 76454-4 0 9995 2 45577 53.0581 31.3793 0001541 53.2257 306.8873 15.06400741 49021 STARLINK-1331 1 45578U 20025AZ 21061.15564601 .00000741 00000-0 68641-4 0 9997 2 45578 53.0607 27.6396 0001742 55.4469 304.6684 15.06398724 48550 STARLINK-1332 1 45579U 20025BA 21061.47906195 .00000896 00000-0 79222-4 0 9999 2 45579 53.0674 346.1496 0009172 8.3626 351.7514 15.06401245 49179 STARLINK-1333 1 45580U 20025BB 21061.22844769 .00000858 00000-0 76496-4 0 9990 2 45580 53.0590 37.3128 0001265 55.0840 305.0268 15.06401530 48423 STARLINK-1335 1 45581U 20025BC 21060.63592169 .00000759 00000-0 69824-4 0 9996 2 45581 53.0592 29.9824 0001762 57.4672 302.6487 15.06404555 49075 STARLINK-1337 1 45582U 20025BD 21061.18881774 -.00002156 00000-0 -12584-3 0 9996 2 45582 53.0581 27.4937 0001840 61.5398 298.5777 15.06401959 48552 STARLINK-1340 1 45583U 20025BE 21060.63962197 -.00000866 00000-0 -39255-4 0 9996 2 45583 53.0590 29.9624 0001875 63.1432 296.9748 15.06390928 48472 STARLINK-1343 1 45584U 20025BF 21060.82760264 .00001111 00000-0 93471-4 0 9991 2 45584 53.0587 29.1106 0001683 68.7755 291.3414 15.06397826 48509 STARLINK-1345 1 45585U 20025BG 21060.64330052 .00000534 00000-0 54747-4 0 9991 2 45585 53.0580 29.9461 0001799 62.6724 297.4448 15.06398735 49079 STARLINK-1347 1 45586U 20025BH 21061.16375667 -.00000396 00000-0 -87142-5 0 9995 2 45586 53.0645 27.4855 0001241 330.0736 30.0180 15.03945641 48545 STARLINK-1349 1 45587U 20025BJ 21060.68754306 .00000637 00000-0 61692-4 0 9990 2 45587 53.0607 29.7405 0001765 57.7181 302.3979 15.06398846 49081 STARLINK-1360 1 45588U 20025BK 21060.59907580 -.00001171 00000-0 -59749-4 0 9991 2 45588 53.0608 30.1349 0001711 59.3204 300.7954 15.06393223 49068 STARLINK-1364 1 45589U 20025BL 21061.19251642 .00000544 00000-0 55450-4 0 9996 2 45589 53.0595 27.4732 0001788 56.7839 303.3321 15.06392163 48550 STARLINK-1365 1 45590U 20025BM 21061.27453256 .00000757 00000-0 69709-4 0 9990 2 45590 53.0591 57.1184 0001469 56.7086 303.4044 15.06389299 48143